1998-067RU (46924 NORAD) Tracking and Keplerian Element Data

This shows tracking and keplerian element data for the satellite.

Feedback or suggestion? Click here.




ElementValue
Catalog46924
Name1998-067RU
Epoch Orbit1143
Epoch Day17.6552262
Epoch Year2021
RAAN6.0518
Inclination51.6433
Eccentricity0.0001057
Argument of Perigee343.613
Mean Anonmoly16.4826
Mean Motion15.52801233
Decay Rate0.00012392
L11 46924U 98067RU 21017.65522620 .00012392 00000-0 20359-3 0 9993
L22 46924 51.6433 6.0518 0001057 343.6130 16.4826 15.52801233 11438

Live tracking and technical data element details for 1998-067RU (NORAD 46924). 1998-067RU can be tracked NOW for your location showing map with azimuth and elevation plus other details from your city location.

Track the satellite on the map from your city or location and see movement details for azimuth, elevation, latitude, longitude, range, height, and movement on the map or in text.







IsCatalogInMostPopularTable: catalog: 46924, numindb: 25
Update: records affected: 1



GetName: 46924 1998-067RU

Hit Count: updated at: Mon, 18 Jan 2021 17:07:59 GMT